| time (UTC) | temp F | wind direction | speed MPH | gust MPH | rain 1hr in | rain 24hr in | rain mn in | humidity % | barometer mb |
| 20260504140519 | 62 | 224 | 2.0 | 7.0 | 0.00 | 0.00 | 0.00 | 41 | 1012.5 |
| 20260504130520 | 57 | 259 | 4.0 | 9.0 | 0.00 | 0.00 | 0.00 | 46 | 1013.0 |
| 20260504110522 | 43 | 81 | 0.0 | 1.0 | 0.00 | 0.00 | 0.00 | 75 | 1013.3 |
| 20260504100520 | 44 | 71 | 0.0 | 0.0 | 0.00 | 0.00 | 0.00 | 71 | 1013.1 |
| 20260504081520 | 48 | 246 | 3.0 | 5.0 | 0.00 | 0.00 | 0.00 | 56 | 1012.7 |
| 20260504080517 | 48 | 249 | 3.0 | 5.0 | 0.00 | 0.00 | 0.00 | 56 | 1012.6 |
| 20260504050520 | 46 | 257 | 1.0 | 4.0 | 0.00 | 0.00 | 0.00 | 62 | 1012.1 |
| 20260504045520 | 46 | 274 | 1.0 | 2.0 | 0.00 | 0.00 | 0.00 | 64 | 1012.1 |
| 20260504044520 | 45 | 264 | 1.0 | 4.0 | 0.00 | 0.00 | 0.00 | 66 | 1012.1 |
| 20260504043519 | 44 | 262 | 1.0 | 3.0 | 0.00 | 0.00 | 0.00 | 69 | 1012.0 |
| 20260504042521 | 43 | 254 | 1.0 | 3.0 | 0.00 | 0.00 | 0.00 | 72 | 1011.9 |
| 20260504041520 | 43 | 62 | 0.0 | 2.0 | 0.00 | 0.00 | 0.00 | 74 | 1011.7 |
| 20260504040520 | 43 | 284 | 0.0 | 2.0 | 0.00 | 0.00 | 0.00 | 74 | 1011.7 |
| 20260504035521 | 43 | 182 | 0.0 | 1.0 | 0.00 | 0.00 | 0.00 | 73 | 1011.6 |
| 20260504034521 | 43 | 27 | 0.0 | 1.0 | 0.00 | 0.00 | 0.00 | 72 | 1011.7 |
| 20260504033520 | 43 | 31 | 0.0 | 1.0 | 0.00 | 0.00 | 0.00 | 71 | 1011.7 |
| 20260504032520 | 44 | 58 | 0.0 | 0.0 | 0.00 | 0.00 | 0.00 | 70 | 1011.8 |
| 20260504031522 | 44 | 58 | 0.0 | 1.0 | 0.00 | 0.00 | 0.00 | 69 | 1011.7 |
| 20260504030519 | 45 | 0.0 | 0.0 | 0.00 | 0.00 | 0.00 | 67 | 1011.7 | |
| 20260504025521 | 45 | 49 | 0.0 | 1.0 | 0.00 | 0.00 | 0.00 | 66 | 1011.7 |
| 20260504024521 | 46 | 66 | 0.0 | 1.0 | 0.00 | 0.00 | 0.00 | 66 | 1011.7 |
| 20260504023541 | 46 | 47 | 0.0 | 1.0 | 0.00 | 0.00 | 0.00 | 64 | 1011.7 |
| 20260504022543 | 46 | 47 | 0.0 | 1.0 | 0.00 | 0.00 | 0.00 | 63 | 1011.8 |
| 20260504021519 | 47 | 16 | 0.0 | 1.0 | 0.00 | 0.00 | 0.00 | 61 | 1011.7 |
| 20260504020541 | 47 | 41 | 0.0 | 2.0 | 0.00 | 0.00 | 0.00 | 60 | 1011.7 |
| 20260504015518 | 48 | 49 | 0.0 | 0.0 | 0.00 | 0.00 | 0.00 | 57 | 1011.7 |
| 20260504014519 | 48 | 50 | 0.0 | 3.0 | 0.00 | 0.00 | 0.00 | 56 | 1011.6 |
| 20260504013539 | 49 | 73 | 0.0 | 1.0 | 0.00 | 0.00 | 0.00 | 55 | 1011.5 |
| 20260504012520 | 50 | 304 | 0.0 | 1.0 | 0.00 | 0.00 | 0.00 | 54 | 1011.5 |
| 20260504011519 | 51 | 47 | 0.0 | 0.0 | 0.00 | 0.00 | 0.00 | 52 | 1011.4 |
| 20260504010520 | 52 | 0.0 | 0.0 | 0.00 | 0.00 | 0.00 | 47 | 1011.2 | |
| 20260504005520 | 53 | 0.0 | 0.0 | 0.00 | 0.00 | 0.00 | 45 | 1011.0 | |
| 20260504004520 | 55 | 276 | 0.0 | 3.0 | 0.00 | 0.00 | 0.00 | 44 | 1010.9 |
| 20260504003519 | 56 | 262 | 1.0 | 3.0 | 0.00 | 0.00 | 0.00 | 40 | 1010.8 |
| 20260504002520 | 56 | 264 | 1.0 | 4.0 | 0.00 | 0.00 | 0.00 | 40 | 1010.7 |
| 20260504001518 | 57 | 250 | 1.0 | 4.0 | 0.00 | 0.00 | 0.00 | 39 | 1010.5 |
| 20260504000542 | 57 | 254 | 1.0 | 4.0 | 0.00 | 0.00 | 0.00 | 37 | 1010.4 |
| 20260503235521 | 58 | 262 | 2.0 | 5.0 | 0.00 | 0.00 | 0.00 | 36 | 1010.3 |
| 20260503234521 | 58 | 266 | 3.0 | 6.0 | 0.00 | 0.00 | 0.00 | 35 | 1010.1 |
| 20260503233518 | 59 | 255 | 3.0 | 6.0 | 0.00 | 0.00 | 0.00 | 34 | 1010.0 |
| 20260503232521 | 60 | 268 | 2.0 | 6.0 | 0.00 | 0.00 | 0.00 | 33 | 1009.9 |
| 20260503231519 | 60 | 255 | 2.0 | 5.0 | 0.00 | 0.00 | 0.00 | 33 | 1009.8 |
| 20260503230604 | 60 | 274 | 1.0 | 6.0 | 0.00 | 0.00 | 0.00 | 33 | 1009.7 |
| 20260503225519 | 60 | 260 | 2.0 | 9.0 | 0.00 | 0.00 | 0.00 | 32 | 1009.6 |
| 20260503224518 | 60 | 252 | 4.0 | 11.0 | 0.00 | 0.00 | 0.00 | 32 | 1009.5 |
| 20260503223539 | 60 | 257 | 4.0 | 11.0 | 0.00 | 0.00 | 0.00 | 32 | 1009.4 |
| 20260503222518 | 60 | 255 | 5.0 | 13.0 | 0.00 | 0.00 | 0.00 | 31 | 1009.5 |
| 20260503221520 | 60 | 37 | 1.0 | 4.0 | 0.00 | 0.00 | 0.00 | 32 | 1009.6 |
| 20260503220523 | 60 | 14 | 2.0 | 5.0 | 0.00 | 0.00 | 0.00 | 32 | 1009.6 |
| 20260503215640 | 59 | 260 | 4.0 | 10.0 | 0.00 | 0.00 | 0.00 | 32 | 1009.5 |
| 20260503214520 | 59 | 260 | 5.0 | 12.0 | 0.00 | 0.00 | 0.00 | 31 | 1009.5 |
| 20260503213519 | 59 | 254 | 3.0 | 9.0 | 0.00 | 0.00 | 0.00 | 32 | 1009.5 |
| 20260503212520 | 59 | 270 | 3.0 | 10.0 | 0.00 | 0.00 | 0.00 | 32 | 1009.5 |
| 20260503211541 | 59 | 275 | 3.0 | 9.0 | 0.00 | 0.00 | 0.00 | 33 | 1009.4 |
| 20260503210521 | 58 | 315 | 3.0 | 9.0 | 0.00 | 0.00 | 0.00 | 33 | 1009.5 |
| 20260503205519 | 58 | 255 | 6.0 | 15.0 | 0.00 | 0.00 | 0.00 | 32 | 1009.4 |
| 20260503204520 | 58 | 262 | 6.0 | 15.0 | 0.00 | 0.00 | 0.00 | 33 | 1009.5 |
| 20260503203540 | 58 | 258 | 5.0 | 14.0 | 0.00 | 0.00 | 0.00 | 34 | 1009.5 |
| 20260503202520 | 58 | 351 | 2.0 | 6.0 | 0.00 | 0.00 | 0.00 | 34 | 1009.5 |
| 20260503201521 | 58 | 249 | 2.0 | 9.0 | 0.00 | 0.00 | 0.00 | 34 | 1009.5 |
| 20260503200539 | 57 | 263 | 4.0 | 10.0 | 0.00 | 0.00 | 0.00 | 34 | 1009.5 |
| 20260503195519 | 57 | 261 | 6.0 | 13.0 | 0.00 | 0.00 | 0.00 | 33 | 1009.6 |
| 20260503194521 | 57 | 269 | 4.0 | 13.0 | 0.00 | 0.00 | 0.00 | 34 | 1009.7 |
| 20260503193522 | 57 | 283 | 3.0 | 7.0 | 0.00 | 0.00 | 0.00 | 34 | 1009.9 |
| 20260503192518 | 57 | 248 | 3.0 | 10.0 | 0.00 | 0.00 | 0.00 | 35 | 1010.0 |
| 20260503191538 | 56 | 259 | 6.0 | 14.0 | 0.00 | 0.00 | 0.00 | 35 | 1010.0 |
| 20260503190519 | 56 | 285 | 3.0 | 8.0 | 0.00 | 0.00 | 0.00 | 36 | 1010.1 |
| 20260503185539 | 56 | 285 | 3.0 | 8.0 | 0.00 | 0.00 | 0.00 | 38 | 1010.2 |
| 20260503184521 | 54 | 254 | 7.0 | 15.0 | 0.00 | 0.00 | 0.00 | 37 | 1010.1 |
| 20260503183519 | 55 | 276 | 4.0 | 13.0 | 0.00 | 0.00 | 0.00 | 39 | 1010.4 |
| 20260503182519 | 54 | 271 | 4.0 | 9.0 | 0.00 | 0.00 | 0.00 | 39 | 1010.4 |
| 20260503181520 | 54 | 265 | 4.0 | 12.0 | 0.00 | 0.00 | 0.00 | 40 | 1010.5 |
| 20260503180519 | 54 | 251 | 7.0 | 15.0 | 0.00 | 0.00 | 0.00 | 38 | 1010.4 |
| 20260503175521 | 54 | 271 | 3.0 | 10.0 | 0.00 | 0.00 | 0.00 | 41 | 1010.5 |
| 20260503174520 | 53 | 317 | 2.0 | 6.0 | 0.00 | 0.00 | 0.00 | 41 | 1010.7 |
| 20260503173521 | 54 | 255 | 6.0 | 19.0 | 0.00 | 0.00 | 0.00 | 40 | 1010.6 |
| 20260503172521 | 53 | 285 | 3.0 | 9.0 | 0.00 | 0.00 | 0.00 | 43 | 1010.8 |
| 20260503171520 | 52 | 259 | 5.0 | 13.0 | 0.00 | 0.00 | 0.00 | 42 | 1011.0 |
| 20260503170520 | 52 | 267 | 4.0 | 8.0 | 0.00 | 0.00 | 0.00 | 42 | 1011.0 |
| 20260503150519 | 49 | 249 | 4.0 | 12.0 | 0.00 | 0.00 | 0.00 | 42 | 1011.2 |